Wind_Speed
35 42 43 49 52 53 56 52 51 53 52 50 52 51 46 48 46 47 42 41 40 40 40 40 42 44 45 44 42 42 40 39 40 43 40 38 35 32 32 33 30 32 31
33 32 39 41 48 55 56 56 58 56 56 55 52 49 47 47 46 45 45 44 46 46 44 44 44 43 43 40 41 41 42 44 47 43 38 36 31 31 32 30 29 30 29
32 35 36 41 45 49 51 57 53 54 63 65 51 47 48 49 47 45 46 45 44 43 41 38 36 36 38 39 40 42 41 41 40 40 35 33 31 32 30 30 29 29 29
29 29 32 39 44 44 49 49 47 48 47 48 49 51 51 51 49 47 46 45 42 42 42 40 38 38 40 41 41 40 39 39 36 36 32 30 33 30 30 30 28 29 28
25 27 28 30 33 35 41 43 45 47 49 48 52 54 55 51 49 50 47 47 48 45 41 41 42 42 42 41 39 35 37 35 36 35 30 35 31 29 30 28 28 28 27
31 32 34 35 35 36 38 41 45 48 47 47 48 45 45 47 46 47 46 45 42 41 42 42 43 42 43 42 41 41 38 39 36 30 30 34 29 30 29 28 28 28 28
32 34 35 38 39 41 42 41 42 44 46 46 47 44 44 40 42 41 41 40 41 42 43 44 44 44 43 42 38 35 35 36 30 28 33 29 29 29 28 28 28 28 28
35 35 37 37 40 39 38 39 39 42 43 43 44 43 42 38 40 41 42 40 40 39 39 40 39 40 39 36 36 35 34 27 30 29 30 29 29 28 28 28 28 28 28
35 35 36 36 36 36 36 36 35 37 40 42 43 42 44 46 44 45 40 38 35 33 32 34 32 31 32 34 34 30 28 32 28 29 29 29 28 27 28 29 29 29 29
33 34 33 33 32 36 35 35 34 36 37 36 35 38 43 42 39 45 44 39 35 36 36 37 35 36 35 32 30 28 32 29 27 29 28 28 27 28 30 29 29 29 29
30 31 30 31 29 30 33 34 33 37 37 36 35 39 35 36 36 37 42 40 41 35 38 38 37 32 31 33 31 29 28 26 28 28 27 27 29 30 29 29 29 29 31
30 31 31 30 26 27 27 24 24 27 31 36 41 43 45 41 36 36 37 40 34 34 31 31 32 33 33 33 29 27 27 27 28 27 28 29 30 28 29 28 29 30 31
33 30 27 24 24 26 27 30 32 31 31 33 29 28 29 32 34 37 38 37 37 31 31 32 31 32 33 30 28 28 27 28 27 27 29 29 29 28 28 28 29 30 32
31 30 29 28 29 31 30 29 28 28 28 28 30 31 32 32 32 32 34 34 34 32 32 32 34 34 29 31 28 28 28 27 27 29 29 28 26 26 27 28 30 32 34
29 30 31 32 30 29 29 28 27 26 25 28 29 29 30 32 32 31 31 32 31 32 33 32 32 30 33 28 30 30 27 26 28 28 28 27 28 29 30 32 33 35 38
27 27 28 29 28 30 28 28 28 28 27 26 26 28 27 26 27 30 30 28 28 30 32 33 32 34 32 31 32 28 26 26 27 27 29 31 33 34 34 36 37 39 40
30 29 29 29 29 28 27 27 27 27 27 28 25 23 25 26 26 27 29 29 29 28 30 31 31 31 32 32 30 28 27 27 27 28 29 30 33 35 35 36 38 39 40
29 28 27 27 28 29 28 27 27 26 26 26 26 24 23 23 26 28 28 28 29 30 30 30 31 32 33 32 30 30 30 28 29 30 32 34 34 34 35 36 39 40 42
24 25 26 27 27 28 28 28 26 25 25 25 25 25 23 22 24 25 25 27 28 30 31 32 34 34 34 34 32 33 33 32 32 34 35 34 33 34 38 39 41 44 45
23 24 25 26 27 29 29 29 29 27 27 27 26 24 24 22 22 23 24 26 28 29 31 33 35 35 35 35 34 35 36 35 36 38 37 35 37 38 42 44 44 43 40
21 22 23 25 26 25 27 30 30 30 30 29 27 27 29 24 24 25 26 26 28 31 32 34 35 36 36 34 34 37 36 38 37 35 36 37 39 42 40 40 40 40 40
28 29 29 30 30 30 29 28 27 29 31 31 32 31 30 28 28 28 28 29 31 32 33 35 35 35 36 37 37 37 37 36 37 38 38 39 42 42 42 41 41 41 41
33 34 33 32 32 33 34 33 32 30 30 30 31 33 34 35 33 32 32 33 32 33 33 33 35 36 36 36 36 36 37 39 40 40 41 42 41 42 43 43 42 42 42
35 36 36 37 37 38 38 39 39 38 38 37 36 34 33 34 37 38 38 37 36 36 35 35 36 37 37 38 39 41 42 42 42 43 43 42 43 44 44 42 42 43 42
35 36 37 38 38 40 41 42 42 42 42 41 39 39 40 40 38 38 38 39 41 42 42 41 40 39 40 41 41 42 42 43 43 44 45 46 46 44 43 42 42 43 43
22 23 24 25 26 29 33 36 39 41 42 44 45 46 45 45 45 45 45 45 44 43 44 46 47 48 47 46 46 47 47 48 48 49 50 49 45 43 43 43 44 43 43
Wind_Direction
250 255 255 256 258 258 259 258 262 261 265 265 264 270 271 273 273 272 274 275 273 274 276 278 279 281 284 286 289 291 286 288 293 296 294 293 290 286 282 288 294 297 297
251 257 256 260 255 255 260 264 262 264 263 265 266 268 267 267 268 271 272 274 275 277 279 279 280 282 281 282 281 286 282 284 291 293 290 290 285 283 286 289 296 295 295
256 258 257 251 250 252 257 261 262 268 266 264 262 263 265 266 267 268 272 275 277 276 274 276 276 278 278 280 283 285 285 287 289 288 287 286 283 287 285 290 294 293 293
257 260 262 259 260 266 269 269 269 265 265 262 264 264 264 266 267 270 271 271 273 274 275 276 274 278 279 280 282 283 285 285 287 286 284 282 287 283 286 289 291 291 292
264 269 275 276 272 269 265 264 265 266 266 266 264 265 264 263 264 265 268 270 272 273 274 273 274 276 277 277 277 281 287 284 287 286 276 283 280 282 286 289 291 290 289
267 272 278 278 270 273 274 269 266 265 264 262 265 265 264 263 264 267 269 269 270 270 267 267 270 270 272 273 274 278 280 283 283 275 280 279 279 282 285 288 288 285 287
274 278 279 279 275 274 273 271 270 268 266 266 263 260 263 261 263 267 267 266 266 266 266 266 266 269 271 272 275 277 279 282 273 278 276 275 279 282 285 286 284 285 287
274 276 278 283 277 272 267 267 269 269 267 264 260 255 258 257 258 262 264 264 263 265 266 267 269 267 268 266 273 271 276 266 276 273 272 274 278 282 284 283 284 286 288
272 276 280 285 278 268 269 269 270 265 264 261 257 254 255 256 262 257 257 259 260 261 264 262 263 266 269 272 271 267 262 266 265 268 270 275 279 281 281 283 285 287 288
272 276 278 283 281 269 271 271 270 268 266 269 265 264 260 261 272 260 257 263 269 268 264 267 266 272 271 268 262 263 264 259 262 267 271 276 279 280 282 283 285 287 288
273 272 276 282 281 277 271 274 272 269 267 267 266 269 266 266 268 268 263 267 266 267 268 267 267 262 271 265 260 263 254 259 264 268 273 277 278 281 282 284 286 287 290
270 276 280 278 271 276 273 271 276 279 276 269 266 265 262 265 265 265 262 263 264 258 262 262 261 262 262 254 259 251 255 260 264 270 274 277 279 280 282 283 286 290 293
273 277 280 278 275 279 277 273 276 277 277 274 270 266 266 261 264 259 262 256 258 260 260 258 255 255 250 252 247 251 255 260 265 271 274 277 279 280 280 285 288 291 295
270 272 273 276 279 278 276 275 276 276 277 277 274 271 270 268 265 260 257 258 259 257 254 250 252 253 249 243 245 250 254 260 267 272 275 276 275 278 284 287 288 292 294
270 272 273 275 277 277 279 277 273 273 279 282 275 273 269 264 264 266 256 255 250 250 250 252 249 245 244 241 244 248 253 261 268 273 275 273 274 279 285 289 291 293 295
272 275 276 276 276 278 279 279 276 273 277 285 283 276 270 264 262 260 261 258 253 251 250 248 244 241 242 241 244 249 256 263 270 275 275 276 279 282 286 288 289 293 295
276 276 275 275 275 274 278 279 279 277 276 276 282 282 275 266 262 260 260 259 258 254 254 251 245 240 240 242 245 250 255 263 272 277 281 284 284 284 286 288 290 294 298
269 271 273 275 276 274 276 280 279 279 278 279 279 280 278 275 268 266 264 262 257 252 250 246 243 242 242 244 247 251 257 265 272 278 284 286 285 286 287 288 292 295 297
273 275 276 277 277 276 276 276 280 281 281 282 281 276 275 273 271 268 264 260 259 255 252 248 246 245 245 248 249 255 261 267 277 283 284 283 282 285 287 291 293 296 298
273 276 277 277 277 276 275 276 275 278 276 280 279 280 273 270 269 266 267 266 262 257 254 253 252 250 251 253 254 259 264 270 276 279 281 280 283 286 290 293 294 296 298
269 278 283 284 284 284 281 277 275 274 274 276 279 274 273 274 271 267 264 264 265 263 261 260 260 258 256 258 258 260 265 271 273 276 281 283 285 290 293 295 295 295 298
273 278 281 279 279 280 281 281 280 276 274 273 272 272 271 269 268 267 267 266 263 264 265 267 267 264 259 257 258 262 267 267 272 279 281 282 286 288 290 293 294 296 297
276 277 277 277 275 273 273 274 275 277 278 277 274 270 269 268 267 267 269 270 271 270 269 269 269 266 265 267 267 266 266 268 274 277 278 282 285 289 291 291 292 294 297
272 273 274 274 274 273 272 271 271 272 273 275 274 273 271 269 268 267 267 266 268 268 267 268 268 261 261 263 264 266 268 271 273 274 277 282 285 288 289 289 291 294 295
275 275 274 274 274 273 272 271 271 271 271 271 271 270 270 269 269 270 270 268 265 266 266 266 267 268 269 268 267 267 269 271 273 276 280 283 288 287 287 289 291 294 294
279 281 283 284 285 284 281 276 273 272 272 272 272 272 272 272 270 270 270 269 269 268 266 265 264 263 263 263 264 266 268 271 274 276 279 283 284 284 287 289 292 292 294
Height
5728 5730 5732 5735 5738 5742 5744 5746 5747 5750 5752 5754 5756 5757 5758 5760 5761 5763 5762 5762 5763 5764 5764 5763 5763 5763 5763 5762 5761 5759 5758 5756 5756 5754 5751 5748 5746 5744 5743 5742 5738 5737 5736
5721 5723 5723 5725 5729 5732 5734 5736 5737 5739 5740 5742 5744 5746 5747 5749 5750 5751 5751 5750 5751 5752 5751 5752 5752 5752 5752 5752 5751 5749 5748 5746 5746 5743 5741 5740 5737 5736 5735 5734 5730 5729 5728
5713 5715 5716 5717 5719 5720 5721 5723 5725 5726 5727 5730 5732 5733 5735 5736 5737 5738 5739 5739 5740 5740 5742 5741 5741 5741 5742 5741 5739 5739 5737 5735 5734 5734 5731 5731 5731 5728 5727 5726 5722 5721 5720
5707 5708 5708 5708 5708 5708 5709 5712 5712 5715 5717 5717 5719 5721 5722 5724 5724 5726 5728 5729 5729 5730 5731 5730 5731 5730 5730 5730 5729 5728 5727 5726 5725 5725 5723 5722 5722 5720 5719 5717 5714 5714 5712
5700 5700 5699 5699 5699 5699 5700 5700 5700 5701 5703 5704 5707 5708 5710 5711 5712 5714 5715 5717 5718 5718 5719 5719 5719 5719 5719 5718 5719 5719 5717 5717 5715 5715 5714 5714 5712 5712 5711 5709 5707 5706 5704
5692 5691 5691 5690 5689 5688 5688 5688 5689 5691 5692 5692 5694 5696 5697 5699 5700 5702 5703 5705 5706 5706 5706 5706 5706 5707 5708 5708 5708 5707 5706 5706 5707 5707 5705 5706 5704 5704 5702 5700 5699 5698 5696
5683 5682 5681 5680 5680 5679 5678 5677 5677 5678 5679 5680 5682 5683 5686 5688 5688 5690 5691 5693 5693 5693 5694 5694 5695 5696 5696 5697 5697 5696 5696 5695 5696 5696 5698 5697 5696 5695 5694 5692 5692 5690 5688
5673 5673 5672 5670 5668 5667 5667 5667 5667 5667 5668 5669 5670 5672 5673 5675 5676 5678 5679 5679 5680 5681 5681 5683 5685 5685 5686 5686 5685 5685 5684 5686 5688 5688 5689 5688 5687 5686 5685 5685 5684 5682 5680
5664 5663 5662 5660 5658 5657 5658 5658 5657 5657 5658 5657 5658 5660 5662 5664 5665 5665 5668 5669 5669 5670 5671 5672 5674 5675 5675 5675 5675 5673 5676 5677 5677 5679 5680 5679 5679 5678 5677 5676 5675 5674 5672
5656 5655 5653 5652 5649 5649 5648 5648 5648 5649 5649 5649 5649 5650 5652 5653 5654 5655 5656 5657 5658 5658 5660 5662 5662 5664 5664 5665 5666 5665 5668 5668 5669 5670 5671 5670 5670 5670 5669 5668 5666 5665 5664
5647 5646 5645 5643 5642 5640 5640 5640 5639 5639 5640 5640 5641 5641 5642 5642 5643 5643 5645 5647 5647 5648 5649 5649 5650 5653 5653 5655 5656 5657 5659 5659 5661 5662 5662 5662 5662 5661 5660 5659 5658 5656 5655
5638 5638 5637 5635 5634 5633 5632 5632 5631 5631 5629 5629 5629 5630 5630 5631 5632 5633 5635 5636 5637 5638 5638 5639 5641 5643 5644 5646 5647 5649 5650 5651 5652 5653 5653 5653 5654 5653 5652 5650 5649 5647 5646
5630 5629 5628 5627 5626 5626 5625 5624 5623 5622 5621 5620 5619 5619 5620 5620 5621 5622 5624 5625 5627 5627 5628 5630 5632 5634 5635 5636 5639 5641 5642 5643 5644 5644 5645 5645 5645 5644 5643 5642 5640 5638 5636
5621 5621 5620 5620 5619 5618 5617 5615 5614 5613 5612 5611 5611 5610 5611 5611 5611 5612 5613 5615 5616 5617 5619 5621 5623 5624 5626 5628 5630 5632 5633 5634 5635 5636 5636 5636 5636 5635 5634 5633 5631 5629 5626
5612 5612 5612 5611 5611 5609 5608 5607 5606 5605 5604 5603 5602 5601 5601 5601 5602 5603 5604 5606 5607 5609 5611 5612 5613 5615 5618 5620 5622 5623 5625 5626 5627 5627 5627 5627 5626 5626 5625 5623 5621 5618 5615
5604 5604 5603 5602 5602 5601 5600 5599 5598 5597 5597 5595 5593 5593 5592 5592 5593 5594 5596 5597 5598 5600 5601 5602 5604 5607 5609 5611 5613 5614 5616 5617 5618 5618 5618 5618 5617 5616 5615 5613 5611 5608 5605
5595 5595 5594 5594 5593 5592 5592 5591 5590 5589 5588 5588 5587 5586 5585 5585 5585 5586 5587 5588 5589 5591 5592 5594 5595 5597 5600 5602 5604 5606 5607 5608 5609 5609 5609 5608 5606 5605 5604 5602 5600 5598 5594
5587 5586 5586 5585 5585 5584 5583 5583 5582 5581 5580 5580 5579 5579 5578 5578 5578 5578 5579 5580 5581 5582 5584 5586 5587 5590 5591 5593 5595 5597 5598 5599 5600 5600 5599 5597 5596 5595 5593 5591 5589 5586 5582
5579 5579 5578 5578 5577 5576 5575 5575 5574 5573 5572 5572 5572 5571 5570 5570 5571 5571 5572 5573 5573 5574 5576 5577 5579 5581 5582 5584 5586 5587 5589 5589 5589 5589 5587 5586 5585 5584 5582 5579 5576 5573 5569
5572 5571 5570 5569 5568 5567 5567 5566 5566 5566 5565 5564 5563 5563 5563 5563 5563 5563 5564 5565 5565 5566 5568 5569 5570 5571 5573 5574 5576 5578 5578 5578 5578 5577 5576 5575 5574 5573 5570 5567 5564 5560 5557
5564 5563 5562 5561 5560 5559 5558 5557 5557 5556 5556 5556 5555 5554 5555 5555 5555 5555 5556 5556 5557 5558 5559 5560 5560 5561 5562 5563 5565 5566 5567 5566 5566 5566 5565 5564 5563 5561 5557 5555 5552 5549 5546
5555 5554 5553 5552 5551 5550 5549 5549 5548 5547 5546 5546 5546 5546 5546 5547 5547 5547 5547 5547 5547 5548 5549 5550 5551 5551 5551 5552 5553 5554 5554 5554 5554 5554 5553 5552 5550 5548 5545 5543 5540 5537 5534
5544 5543 5542 5541 5541 5540 5540 5539 5538 5537 5537 5536 5536 5535 5535 5536 5536 5537 5537 5537 5537 5537 5538 5539 5539 5540 5540 5541 5541 5542 5543 5542 5542 5542 5541 5539 5538 5535 5533 5530 5527 5525 5522
5533 5532 5531 5530 5529 5528 5528 5527 5526 5526 5526 5526 5525 5525 5524 5524 5524 5525 5525 5525 5526 5526 5527 5527 5528 5528 5528 5529 5529 5530 5530 5529 5529 5528 5527 5526 5524 5522 5520 5517 5515 5512 5509
5521 5519 5518 5517 5516 5515 5514 5514 5513 5513 5513 5512 5512 5512 5512 5512 5512 5512 5512 5512 5513 5513 5513 5514 5515 5515 5516 5516 5517 5517 5516 5516 5516 5515 5514 5513 5511 5508 5506 5504 5502 5499 5496
5511 5509 5508 5506 5505 5503 5502 5501 5500 5499 5499 5499 5498 5498 5498 5498 5498 5498 5497 5497 5498 5499 5499 5499 5500 5500 5501 5502 5502 5502 5502 5501 5501 5500 5500 5499 5497 5495 5493 5491 5488 5486 5483